[[{"header":{"parameterUnit":"m.s-1","parameterCategory":1,"la1":30.2992,"la2":30.254,"lo1":-89.0895,"lo2":-89.0443,"dy":0.0025,"dx":0.0025,"nx":19,"ny":19,"refTime":"2026-04-17T03:00:00:Z","depth":0,"parameterNumber":2,"parameterNumberName":"U-component_of_WINDS"},"data":[0,0,0,0.8756,0.8757,0.8787,0.8787,0.8824,0.8824,0,0,0,0,0,0,0,0,0,0,0,0.8748,0.8748,0.8756,0.8757,0.8787,0.8787,0.8824,0.8824,0,0,0,0,0,0,0,0,0,0,0,0.8748,0.8748,0.8749,0.8757,0.8787,0.8787,0.8824,0.8801,0,0,0,0,0,0,0,0,0,0,0.8772,0.8766,0.8748,0.8749,0.8757,0.8787,0.8787,0.88,0.8803,0.881,0,0.8819,0,0.8822,0.8827,0.8827,0,0,0,0.8756,0.8764,0.8771,0.8749,0.8757,0.8787,0.8773,0.8802,0.8805,0.8814,0.8819,0.8821,0.8823,0.8827,0.8827,0.8874,0.8875,0,0,0.8754,0.8754,0.8769,0.8773,0.877,0.8772,0.8774,0.8804,0.8809,0.8819,0.8821,0.8823,0.8828,0.8828,0.8874,0.8874,0,0,0,0.875,0.8753,0.8759,0.8772,0.8777,0.8773,0.8775,0.8808,0.881,0.8822,0.8824,0.8828,0.8828,0.8874,0.8874,0.8885,0,0,0,0.8749,0.875,0.8759,0.8758,0.8777,0.8793,0.8779,0.8808,0.8811,0.8824,0.8828,0.8829,0.8874,0.8874,0.8884,0.889,0,0,0,0.8746,0.875,0.8754,0.8758,0.8771,0.8793,0.8797,0.8809,0.8812,0.8827,0.8829,0.8873,0.8874,0.8883,0.8889,0.8901,0,0,0,0.8742,0.8765,0.8755,0.878,0.8771,0.88,0.8796,0.8818,0.8832,0.8828,0.8874,0.8874,0.8883,0.8888,0.89,0.891,0.8914,0,0,0.877,0.8768,0.8783,0.8775,0.8805,0.8795,0.8826,0.884,0.8842,0.8863,0.8864,0.8884,0.8889,0.89,0.8941,0.8945,0,0,0,0.8792,0.8803,0.8811,0.8824,0.8835,0.8843,0.8852,0.8857,0.8875,0.8853,0.8893,0.8895,0.8902,0.8907,0.891,0.8915,0.8877,0.8877,0.8877,0.8831,0.8832,0.8856,0.8859,0.8872,0.888,0.8889,0.8897,0.8895,0.8904,0.891,0.8935,0.894,0.8942,0.8948,0.8916,0.8916,0.8916,0.8916,0.8871,0.8885,0.888,0.8902,0.8902,0.892,0.8927,0.8925,0.894,0.8931,0.8937,0.8925,0.8946,0.8951,0.8917,0.8917,0.8917,0.8917,0.8917,0.8896,0.8902,0.8907,0.8924,0.8937,0.894,0.8954,0.8954,0.8954,0.896,0.8965,0.8965,0.8963,0.8963,0.8963,0.8963,0.8963,0.8963,0.8963,0.8919,0.8924,0.8936,0.8948,0.8954,0.8964,0.897,0.8976,0.8983,0.8982,0.8982,0.8977,0.8949,0.8941,0.8964,0.8964,0.8964,0.8964,0.8964,0.8957,0.8948,0.8967,0.8974,0.8986,0.8997,0.8996,0.9009,0.9014,0.9021,0.9015,0.8994,0.8992,0.899,0.8983,0.9016,0.9016,0.9016,0.9016,0.8977,0.8976,0.8994,0.9004,0.9014,0.9015,0.9034,0.9038,0.9041,0.9044,0.9039,0.9031,0.9028,0.9028,0.9024,0.9018,0.9059,0.9059,0.9059,0.9,0.8999,0.9016,0.9019,0.9027,0.9034,0.9052,0.9063,0.9064,0.9061,0.9046,0.9044,0.903,0.9026,0.9022,0.9017,0.9005,0,0]},{"header":{"parameterUnit":"m.s-1","parameterCategory":1,"la1":30.2992,"la2":30.254,"lo1":-89.0895,"lo2":-89.0443,"dy":0.0025,"dx":0.0025,"nx":19,"ny":19,"refTime":"2026-04-17T03:00:00:Z","depth":0,"parameterNumber":3,"parameterNumberName":"V-component_of_WINDS"},"data":[0,0,0,4.947,4.9472,4.9538,4.9538,4.9638,4.9639,0,0,0,0,0,0,0,0,0,0,0,4.9462,4.9463,4.947,4.9472,4.9538,4.9538,4.9638,4.9639,0,0,0,0,0,0,0,0,0,0,0,4.9462,4.9463,4.9464,4.9472,4.9538,4.9538,4.9638,4.9582,0,0,0,0,0,0,0,0,0,0,4.9515,4.952,4.9463,4.9464,4.9473,4.9538,4.9538,4.9579,4.9585,4.9616,0,4.9648,0,4.9646,4.9647,4.9648,0,0,0,4.9463,4.9514,4.9522,4.9465,4.9473,4.9538,4.9506,4.9582,4.959,4.9624,4.9649,4.9652,4.9647,4.9648,4.9649,4.9857,4.9858,0,0,4.9459,4.948,4.9517,4.9527,4.952,4.9504,4.9508,4.9587,4.9614,4.9649,4.9654,4.9649,4.9649,4.965,4.9856,4.9857,0,0,0,4.9455,4.9478,4.9483,4.9523,4.9534,4.9506,4.9511,4.9611,4.961,4.9655,4.965,4.965,4.9651,4.9854,4.9856,4.9945,0,0,0,4.9452,4.9475,4.9482,4.9495,4.9533,4.9574,4.9533,4.9605,4.9613,4.9649,4.965,4.9652,4.9853,4.9855,4.9939,4.9983,0,0,0,4.9454,4.9475,4.9489,4.9496,4.9526,4.9572,4.9576,4.9606,4.9611,4.9648,4.9653,4.9852,4.9855,4.9934,4.9975,5.0043,0,0,0,4.9461,4.9569,4.9491,4.9608,4.9526,4.9628,4.9575,4.965,4.9693,4.965,4.9853,4.9856,4.9933,4.997,5.0037,5.0102,5.0132,0,0,4.9608,4.9587,4.9654,4.9587,4.9708,4.9616,4.9749,4.9768,4.9752,4.9822,4.9827,4.9941,4.9974,5.0041,5.0294,5.0318,0,0,0,4.9707,4.9756,4.9783,4.9825,4.9843,4.986,4.9856,4.9863,4.9921,4.9793,4.9984,5.0003,5.0042,5.0072,5.0092,5.0122,4.9871,4.9871,4.9871,4.9945,4.9918,5.0026,5.0007,5.0049,5.0043,5.0072,5.008,5.0042,5.0087,5.0107,5.0264,5.03,5.0315,5.0347,5.0141,5.0141,5.0142,5.0142,5.0156,5.0219,5.0164,5.0249,5.0219,5.029,5.0287,5.0257,5.0317,5.0247,5.028,5.0204,5.0342,5.0368,5.0148,5.0147,5.0146,5.0146,5.0145,5.0307,5.0332,5.0339,5.0394,5.044,5.0416,5.0475,5.0446,5.042,5.0452,5.0468,5.0467,5.046,5.0462,5.0463,5.0463,5.0464,5.0464,5.0464,5.0461,5.0465,5.0519,5.0545,5.0566,5.0591,5.0584,5.0604,5.0618,5.0592,5.0592,5.0547,5.0361,5.0314,5.0473,5.0471,5.047,5.0469,5.0469,5.0682,5.0627,5.071,5.0732,5.0757,5.0803,5.0765,5.0807,5.0819,5.0849,5.0797,5.0665,5.0641,5.0625,5.0585,5.0804,5.0804,5.0804,5.0804,5.0808,5.0793,5.087,5.0906,5.0937,5.0911,5.1003,5.0998,5.0984,5.0989,5.0953,5.0899,5.0884,5.0868,5.0847,5.0809,5.1081,5.1081,5.1081,5.0941,5.0927,5.1012,5.0998,5.1015,5.103,5.1115,5.1156,5.1129,5.1092,5.0992,5.098,5.0892,5.0865,5.0825,5.0792,5.0723,0,0]}]]